• In Netherlands
  • List of Countries
  • For 7 days
  • Water Temperature
  • Satellite Maps
  • Weather Map
  • Weather Widgets
  • user-avatar
    Login

    Hourly Weather Kiustendil

    Today, 22 July, Sunday

    Time Temperature Precipitation Wind Pressure Humidity
    00:00 +12°C° 0 mm 1 mps 625 mmHg 56%
    01:00 +12°C° 0 mm 1 mps 625 mmHg 57%
    02:00 +12°C° 0 mm 1 mps 625 mmHg 58%
    03:00 +12°C° 0 mm 1 mps 625 mmHg 59%
    04:00 +11°C° 0 mm 1 mps 625 mmHg 60%
    05:00 +14°C° 0 mm 1 mps 625 mmHg 54%
    06:00 +16°C° 0 mm 1 mps 626 mmHg 48%
    07:00 +20°C° 0 mm 1 mps 627 mmHg 43%
    08:00 +21°C° 0 mm 2 mps 627 mmHg 38%
    09:00 +24°C° 0 mm 2 mps 628 mmHg 33%
    10:00 +26°C° 0 mm 2 mps 628 mmHg 28%
    11:00 +27°C° 0 mm 3 mps 628 mmHg 26%
    12:00 +28°C° 0 mm 3 mps 628 mmHg 24%
    13:00 +27°C° 0 mm 4 mps 628 mmHg 25%
    14:00 +27°C° 0 mm 4 mps 628 mmHg 26%
    15:00 +27°C° 0 mm 4 mps 628 mmHg 26%
    16:00 +27°C° 0 mm 4 mps 627 mmHg 26%
    17:00 +24°C° 0 mm 3 mps 626 mmHg 32%
    18:00 +21°C° 0 mm 3 mps 625 mmHg 38%
    19:00 +18°C° 0 mm 2 mps 625 mmHg 45%
    20:00 +16°C° 0 mm 2 mps 624 mmHg 50%
    21:00 +15°C° 0 mm 2 mps 624 mmHg 54%
    22:00 +13°C° 0 mm 1 mps 623 mmHg 59%
    23:00 +13°C° 0 mm 1 mps 623 mmHg 62%

    Tomorrow, 23 July, Monday

    Time Temperature Precipitation Wind Pressure Humidity
    00:00 +12°C° 0 mm 1 mps 623 mmHg 64%
    01:00 +12°C° 0 mm 1 mps 623 mmHg 67%
    02:00 +11°C° 0 mm 1 mps 622 mmHg 67%
    03:00 +11°C° 0 mm 1 mps 622 mmHg 68%
    04:00 +11°C° 0 mm 1 mps 622 mmHg 69%
    05:00 +13°C° 0 mm 1 mps 622 mmHg 62%
    06:00 +15°C° 0 mm 1 mps 623 mmHg 56%
    07:00 +18°C° 0 mm 1 mps 624 mmHg 50%
    08:00 +20°C° 0 mm 1 mps 624 mmHg 45%
    09:00 +22°C° 0 mm 1 mps 624 mmHg 40%
    10:00 +24°C° 0 mm 1 mps 625 mmHg 36%
    11:00 +24°C° 0.1 mm 2 mps 624 mmHg 35%
    12:00 +24°C° 0.1 mm 2 mps 624 mmHg 35%
    13:00 +24°C° 0.1 mm 2 mps 624 mmHg 34%
    14:00 +22°C° 0.5 mm 3 mps 623 mmHg 39%
    15:00 +21°C° 0.5 mm 4 mps 623 mmHg 43%
    16:00 +20°C° 0.5 mm 5 mps 622 mmHg 48%
    17:00 +18°C° 0.6 mm 4 mps 622 mmHg 56%
    18:00 +16°C° 0.6 mm 3 mps 621 mmHg 64%
    19:00 +14°C° 0.6 mm 2 mps 620 mmHg 72%
    20:00 +13°C° 0.1 mm 2 mps 620 mmHg 75%
    21:00 +12°C° 0.1 mm 2 mps 620 mmHg 79%
    22:00 +10°C° 0.1 mm 2 mps 620 mmHg 82%
    23:00 +10°C° 0 mm 2 mps 620 mmHg 84%

    Day after tomorrow, 24 July, Tuesday

    Time Temperature Precipitation Wind Pressure Humidity
    00:00 +9°C° 0 mm 2 mps 620 mmHg 86%
    01:00 +9°C° 0 mm 2 mps 619 mmHg 88%
    02:00 +9°C° 0 mm 2 mps 619 mmHg 89%
    03:00 +9°C° 0 mm 2 mps 619 mmHg 90%
    04:00 +8°C° 0 mm 2 mps 619 mmHg 91%
    05:00 +10°C° 0 mm 2 mps 620 mmHg 86%
    06:00 +11°C° 0 mm 3 mps 620 mmHg 81%
    07:00 +12°C° 0 mm 3 mps 621 mmHg 76%
    08:00 +13°C° 0.1 mm 4 mps 621 mmHg 72%
    09:00 +14°C° 0.1 mm 4 mps 622 mmHg 67%
    10:00 +15°C° 0.1 mm 5 mps 622 mmHg 63%
    11:00 +16°C° 0.2 mm 5 mps 622 mmHg 62%
    12:00 +16°C° 0.2 mm 5 mps 622 mmHg 60%
    13:00 +17°C° 0.2 mm 5 mps 622 mmHg 59%
    14:00 +17°C° 0.2 mm 5 mps 622 mmHg 58%
    15:00 +18°C° 0.2 mm 4 mps 622 mmHg 57%
    16:00 +18°C° 0.2 mm 4 mps 622 mmHg 57%
    17:00 +15°C° 0.1 mm 4 mps 622 mmHg 64%
    18:00 +14°C° 0.1 mm 3 mps 622 mmHg 71%
    19:00 +13°C° 0.1 mm 2 mps 621 mmHg 78%
    20:00 +12°C° 0 mm 2 mps 621 mmHg 82%
    21:00 +12°C° 0 mm 2 mps 621 mmHg 86%
    22:00 +10°C° 0 mm 2 mps 621 mmHg 90%
    23:00 +10°C° 0 mm 2 mps 621 mmHg 91%

    25 July, Wednesday

    Time Temperature Precipitation Wind Pressure Humidity
    00:00 +10°C° 0 mm 1 mps 621 mmHg 92%
    01:00 +10°C° 0 mm 1 mps 621 mmHg 92%
    02:00 +10°C° 0 mm 1 mps 621 mmHg 93%
    03:00 +10°C° 0 mm 1 mps 621 mmHg 93%
    04:00 +10°C° 0 mm 1 mps 621 mmHg 93%
    05:00 +11°C° 0 mm 1 mps 622 mmHg 87%
    06:00 +13°C° 0 mm 2 mps 622 mmHg 81%
    07:00 +14°C° 0 mm 2 mps 623 mmHg 75%
    08:00 +16°C° 0 mm 2 mps 623 mmHg 68%
    09:00 +17°C° 0 mm 2 mps 624 mmHg 62%
    10:00 +18°C° 0 mm 3 mps 625 mmHg 55%
    11:00 +19°C° 0.1 mm 3 mps 625 mmHg 52%
    12:00 +20°C° 0.1 mm 3 mps 625 mmHg 49%
    13:00 +21°C° 0.1 mm 3 mps 625 mmHg 46%
    14:00 +21°C° 0.2 mm 3 mps 625 mmHg 47%
    15:00 +21°C° 0.2 mm 3 mps 625 mmHg 49%
    16:00 +21°C° 0.2 mm 3 mps 624 mmHg 50%
    17:00 +19°C° 0.3 mm 2 mps 624 mmHg 57%
    18:00 +17°C° 0.3 mm 2 mps 623 mmHg 64%
    19:00 +15°C° 0.3 mm 2 mps 623 mmHg 72%
    20:00 +14°C° 0.4 mm 1 mps 623 mmHg 76%
    21:00 +13°C° 0.4 mm 1 mps 623 mmHg 81%
    22:00 +12°C° 0.4 mm 1 mps 623 mmHg 86%
    23:00 +12°C° 0.1 mm 1 mps 623 mmHg 87%

    26 July, Thursday

    Time Temperature Precipitation Wind Pressure Humidity
    00:00 +12°C° 0.1 mm 1 mps 622 mmHg 88%
    01:00 +11°C° 0.1 mm 1 mps 622 mmHg 89%
    02:00 +11°C° 0 mm 1 mps 622 mmHg 90%
    03:00 +11°C° 0 mm 1 mps 622 mmHg 91%
    04:00 +11°C° 0 mm 1 mps 622 mmHg 92%
    05:00 +12°C° 0.2 mm 1 mps 623 mmHg 86%
    06:00 +14°C° 0.2 mm 1 mps 624 mmHg 81%
    07:00 +15°C° 0.2 mm 2 mps 624 mmHg 75%
    08:00 +17°C° 0.2 mm 2 mps 625 mmHg 69%
    09:00 +18°C° 0.2 mm 2 mps 625 mmHg 62%
    10:00 +20°C° 0.2 mm 2 mps 626 mmHg 56%
    11:00 +20°C° 0.7 mm 2 mps 626 mmHg 54%
    12:00 +21°C° 0.7 mm 2 mps 626 mmHg 52%
    13:00 +21°C° 0.7 mm 2 mps 626 mmHg 51%
    14:00 +21°C° 0.7 mm 2 mps 626 mmHg 53%
    15:00 +20°C° 0.7 mm 2 mps 625 mmHg 55%
    16:00 +20°C° 0.7 mm 2 mps 625 mmHg 57%
    17:00 +19°C° 0.4 mm 1 mps 625 mmHg 62%
    18:00 +18°C° 0.4 mm 1 mps 625 mmHg 66%
    19:00 +15°C° 0.4 mm 1 mps 624 mmHg 71%
    20:00 +14°C° 0.6 mm 1 mps 624 mmHg 75%
    21:00 +14°C° 0.6 mm 1 mps 624 mmHg 79%
    22:00 +13°C° 0.6 mm 1 mps 624 mmHg 83%
    23:00 +12°C° 0.2 mm 1 mps 624 mmHg 84%

    27 July, Friday

    Time Temperature Precipitation Wind Pressure Humidity
    00:00 +12°C° 0.2 mm 1 mps 623 mmHg 85%
    01:00 +11°C° 0.2 mm 1 mps 623 mmHg 86%
    02:00 +11°C° 0.1 mm 1 mps 623 mmHg 87%
    03:00 +11°C° 0.1 mm 1 mps 623 mmHg 88%
    04:00 +11°C° 0.1 mm 1 mps 623 mmHg 88%
    05:00 +13°C° 0.1 mm 1 mps 624 mmHg 83%
    06:00 +14°C° 0.1 mm 1 mps 625 mmHg 77%
    07:00 +16°C° 0.1 mm 1 mps 625 mmHg 71%
    08:00 +18°C° 0.2 mm 2 mps 626 mmHg 65%
    09:00 +19°C° 0.2 mm 2 mps 626 mmHg 58%
    10:00 +21°C° 0.2 mm 2 mps 627 mmHg 52%
    11:00 +23°C° 0.7 mm 2 mps 627 mmHg 50%
    12:00 +23°C° 0.7 mm 2 mps 627 mmHg 48%
    13:00 +24°C° 0.7 mm 2 mps 627 mmHg 46%
    14:00 +24°C° 0.5 mm 2 mps 627 mmHg 48%
    15:00 +23°C° 0.5 mm 2 mps 626 mmHg 50%
    16:00 +21°C° 0.5 mm 2 mps 626 mmHg 52%
    17:00 +20°C° 0.4 mm 2 mps 626 mmHg 57%
    18:00 +18°C° 0.4 mm 2 mps 625 mmHg 62%
    19:00 +17°C° 0.4 mm 2 mps 625 mmHg 67%
    20:00 +16°C° 0.1 mm 1 mps 625 mmHg 71%
    21:00 +15°C° 0.1 mm 1 mps 625 mmHg 75%
    22:00 +14°C° 0.1 mm 1 mps 624 mmHg 80%
    23:00 +13°C° 0.1 mm 1 mps 624 mmHg 82%
    Show more